Hereford, TX

2:53 PM CDT on May 25, 2017 (GMT -0500)
Hereford Municipal

Weather History for KHRX - April, 2014

Change the Weather History Date:

Monday, April 28, 2014

  Actual Average (KCVN) Record (KCVN)
Temperature  
Mean Temperature 54 °F -  
Max Temperature 73 °F 73 °F 97 °F (1928)
Min Temperature 36 °F 43 °F 32 °F (1917)
Degree Days  
Heating Degree Days 11    
Growing Degree Days 4 (Base 50)    
Moisture  
Dew Point 20 °F    
Average Humidity 33    
Maximum Humidity 70    
Minimum Humidity 9    
Precipitation  
Precipitation 0.00 in - - ()
Sea Level Pressure  
Sea Level Pressure 29.72 in    
Wind  
Wind Speed 11 mph (WNW)    
Max Wind Speed 32 mph    
Max Gust Speed 46 mph    
Visibility 10 miles    
Events Rain    
Averages and records for this station are not official NWS values.
T = Trace of Precipitation, MM = Missing Value Source: NWS Daily Summary

Daily Weather History Graph

Daily Weather History Graph

Search for Another Location

Airport or City:

Trip Planner

Search our weather history database for the weather conditions in past years. The results will help you decide how hot, cold, wet, or windy it might be!

Date:

Astronomy

Apr. 28, 2014 Rise Set
Actual Time 7:01 AM CDT 8:32 PM CDT
Civil Twilight 6:35 AM CDT 8:59 PM CDT
Nautical Twilight 6:03 AM CDT 9:31 PM CDT
Astronomical Twilight 5:29 AM CDT 10:05 PM CDT
Moon 6:39 AM CDT (4/28) 8:13 PM CDT (4/28)
Length of Visible Light 14h 23m
Length of Day
13h 30m
Waning Crescent, 0% of the Moon is Illuminated
Apr 28
Waning Crescent
Apr 29
New
May 6
First Quarter
May 14
Full
May 21
Last Quarter

Hourly Weather History & Observations

Time (CDT) Temp. Windchill Dew Point Humidity Pressure Visibility Wind Dir Wind Speed Gust Speed Precip Events Conditions
12:15 AM 50.7 °F - 33.8 °F 52% 29.67 in 10.0 mi North - - N/A   Scattered Clouds
12:35 AM 48.9 °F - 33.6 °F 56% 29.68 in 10.0 mi North - - N/A   Scattered Clouds
12:55 AM 48.4 °F - 33.8 °F 57% 29.68 in 10.0 mi North - - N/A   Clear
1:15 AM 46.4 °F - 33.4 °F 61% 29.68 in 10.0 mi Calm Calm - N/A   Clear
1:35 AM 47.5 °F - 34.2 °F 60% 29.68 in 10.0 mi North - - N/A   Scattered Clouds
1:55 AM 46.8 °F - 32.7 °F 58% 29.69 in 10.0 mi Calm Calm - N/A   Scattered Clouds
2:15 AM 41.4 °F 37.6 °F 27.3 °F 57% 29.70 in 10.0 mi WNW 5.8 mph - N/A   Clear
2:35 AM 40.1 °F 36.9 °F 26.8 °F 59% 29.70 in 10.0 mi WNW 4.6 mph - N/A   Clear
2:55 AM 39.0 °F 34.0 °F 28.9 °F 67% 29.70 in 10.0 mi WSW 6.9 mph - N/A   Clear
3:15 AM 41.4 °F 36.2 °F 31.1 °F 67% 29.70 in 7.0 mi SW 8.1 mph - N/A   Clear
3:35 AM 40.5 °F 38.4 °F 28.9 °F 64% 29.69 in 10.0 mi SSW 3.5 mph - N/A   Clear
3:55 AM 38.8 °F 35.4 °F 27.1 °F 63% 29.70 in 7.0 mi SW 4.6 mph - N/A   Clear
4:15 AM 36.3 °F 32.5 °F 26.4 °F 67% 29.70 in 10.0 mi SW 4.6 mph - N/A   Clear
4:35 AM 36.5 °F 32.7 °F 27.1 °F 69% 29.70 in 10.0 mi SSW 4.6 mph - N/A   Clear
4:55 AM 39.7 °F - 29.1 °F 66% 29.70 in 10.0 mi Calm Calm - N/A   Clear
5:15 AM 40.8 °F 36.2 °F 31.6 °F 70% 29.70 in 10.0 mi SSW 6.9 mph - N/A   Clear
5:35 AM 39.9 °F 35.8 °F 29.3 °F 66% 29.70 in 10.0 mi SW 5.8 mph - N/A   Clear
5:55 AM 41.9 °F 36.9 °F 31.6 °F 67% 29.70 in 10.0 mi SSW 8.1 mph - N/A   Clear
6:15 AM 41.7 °F 36.7 °F 31.5 °F 67% 29.70 in 10.0 mi SSW 8.1 mph - N/A   Clear
6:35 AM 40.6 °F 38.6 °F 30.9 °F 68% 29.70 in 10.0 mi SW 3.5 mph - N/A   Clear
6:55 AM 42.4 °F 37.5 °F 32.0 °F 67% 29.71 in 10.0 mi SSW 8.1 mph - N/A   Clear
7:15 AM 40.1 °F 36.9 °F 28.6 °F 63% 29.72 in 10.0 mi SW 4.6 mph - N/A   Clear
7:35 AM 37.4 °F 32.8 °F 27.0 °F 66% 29.73 in 7.0 mi WSW 5.8 mph - N/A   Clear
7:55 AM 41.9 °F 35.4 °F 22.3 °F 46% 29.73 in 10.0 mi SW 11.5 mph - N/A   Clear
8:15 AM 44.4 °F 38.2 °F 18.1 °F 35% 29.73 in 10.0 mi WSW 12.7 mph - N/A   Clear
8:55 AM 49.6 °F - 18.7 °F 29% 29.74 in 10.0 mi West 16.1 mph 20.7 mph N/A   Clear
9:15 AM 54.1 °F - 17.6 °F 24% 29.75 in 10.0 mi West 18.4 mph - N/A   Clear
9:35 AM 56.8 °F - 18.5 °F 22% 29.74 in 10.0 mi West 15.0 mph - N/A   Clear
9:55 AM 61.0 °F - 16.3 °F 18% 29.74 in 10.0 mi West 20.7 mph 26.5 mph N/A   Clear
10:15 AM 61.7 °F - 15.1 °F 16% 29.74 in 10.0 mi WNW 21.9 mph 29.9 mph N/A   Clear
10:35 AM 62.8 °F - 14.4 °F 15% 29.74 in 10.0 mi WNW 24.2 mph 32.2 mph N/A   Clear
11:15 AM 63.9 °F - 13.5 °F 14% 29.75 in 10.0 mi WNW 25.3 mph 33.4 mph N/A   Clear
11:35 AM 64.6 °F - 12.6 °F 13% 29.75 in 10.0 mi WNW 20.7 mph 33.4 mph N/A   Clear
11:55 AM 65.7 °F - 12.6 °F 13% 29.74 in 10.0 mi NW 25.3 mph 32.2 mph N/A   Clear
12:15 PM 66.6 °F - 12.2 °F 12% 29.73 in 10.0 mi NW 24.2 mph 33.4 mph N/A   Clear
12:35 PM 67.3 °F - 11.8 °F 12% 29.73 in 10.0 mi WNW 19.6 mph 33.4 mph N/A   Scattered Clouds
12:55 PM 68.4 °F - 11.8 °F 11% 29.72 in 10.0 mi NW 26.5 mph 31.1 mph N/A   Scattered Clouds
1:15 PM 68.5 °F - 11.7 °F 11% 29.71 in 10.0 mi NW 26.5 mph 33.4 mph N/A   Clear
1:35 PM 69.1 °F - 9.3 °F 10% 29.71 in 10.0 mi NW 23.0 mph 34.5 mph N/A   Clear
1:55 PM 70.0 °F - 10.2 °F 10% 29.70 in 10.0 mi WNW 19.6 mph 33.4 mph N/A   Clear
2:15 PM 68.7 °F - 10.6 °F 11% 29.69 in 10.0 mi WNW 25.3 mph 32.2 mph N/A   Scattered Clouds
2:35 PM 69.4 °F - 9.9 °F 10% 29.68 in 10.0 mi WNW 18.4 mph 32.2 mph N/A   Scattered Clouds
2:55 PM 69.1 °F - 11.1 °F 11% 29.68 in 10.0 mi WNW 21.9 mph 32.2 mph N/A   Scattered Clouds
3:35 PM 70.0 °F - 9.5 °F 10% 29.67 in 10.0 mi WNW 21.9 mph 29.9 mph N/A   Clear
3:55 PM 70.9 °F - 9.7 °F 9% 29.66 in 10.0 mi West 17.3 mph 31.1 mph N/A   Clear
4:15 PM 71.6 °F - 8.1 °F 9% 29.65 in 10.0 mi WNW 21.9 mph 31.1 mph N/A   Clear
4:35 PM 71.8 °F - 8.4 °F 9% 29.65 in 10.0 mi North - - N/A   Clear
4:55 PM 71.6 °F - 9.9 °F 9% 29.65 in 10.0 mi WNW 26.5 mph 43.7 mph N/A   Clear
5:15 PM 70.9 °F - 8.8 °F 9% 29.64 in 10.0 mi NW 27.6 mph 40.3 mph N/A   Clear
5:35 PM 69.1 °F - 9.7 °F 10% 29.66 in 10.0 mi NW 19.6 mph 33.4 mph N/A   Scattered Clouds
5:55 PM 72.7 °F - 11.3 °F 9% 29.66 in 10.0 mi West 32.2 mph 40.3 mph N/A   Scattered Clouds
6:15 PM 70.7 °F - 11.7 °F 10% 29.67 in 10.0 mi NNW 11.5 mph 21.9 mph N/A   Clear
6:35 PM 71.6 °F - 10.0 °F 9% 29.66 in 10.0 mi WNW 19.6 mph 29.9 mph N/A   Clear
6:55 PM 68.9 °F - 12.2 °F 11% 29.67 in 10.0 mi North 15.0 mph 28.8 mph N/A   Clear
7:15 PM 66.6 °F - 11.8 °F 12% 29.68 in 10.0 mi NW 16.1 mph - N/A   Scattered Clouds
7:35 PM 65.7 °F - 11.5 °F 12% 29.69 in 10.0 mi NNE 13.8 mph 20.7 mph N/A   Mostly Cloudy
7:55 PM 64.8 °F - 11.8 °F 13% 29.70 in 10.0 mi North 17.3 mph 21.9 mph N/A   Overcast
8:15 PM 63.7 °F - 13.5 °F 14% 29.72 in 10.0 mi NNW 15.0 mph 18.4 mph N/A   Overcast
8:35 PM 63.3 °F - 13.3 °F 14% 29.74 in 10.0 mi North 11.5 mph - N/A   Overcast
8:55 PM 63.1 °F - 14.4 °F 15% 29.75 in 10.0 mi North 12.7 mph 17.3 mph N/A   Overcast
9:15 PM 63.0 °F - 14.7 °F 15% 29.77 in 10.0 mi NNW 11.5 mph 25.3 mph N/A   Overcast
9:55 PM 59.7 °F - 22.3 °F 24% 29.81 in 10.0 mi NNW 23.0 mph 33.4 mph N/A   Overcast
10:15 PM 56.8 °F - 28.0 °F 33% 29.86 in 7.0 mi North 19.6 mph 46.0 mph N/A Rain Light Rain
10:35 PM 55.6 °F - 27.3 °F 34% 29.85 in 10.0 mi NNE 19.6 mph 26.5 mph N/A   Mostly Cloudy
10:55 PM 55.4 °F - 27.3 °F 34% 29.86 in 10.0 mi North 16.1 mph 27.6 mph N/A   Mostly Cloudy
11:15 PM 54.3 °F - 29.1 °F 38% 29.87 in 10.0 mi North 19.6 mph 28.8 mph N/A   Overcast
11:35 PM 53.4 °F - 29.8 °F 40% 29.89 in 10.0 mi NNE 17.3 mph 24.2 mph N/A   Scattered Clouds
11:55 PM 52.0 °F - 30.7 °F 44% 29.89 in 10.0 mi NNE 15.0 mph 23.0 mph N/A   Clear